Skip Navigation Links weather.gov 
NOAA logo-Select to go to the NOAA homepage NDBC Title GraphicClick to go to NDBC home page   Select to go to the NWS homepage
Home About Us Contact Us
 
 
    
    Station List

 Data Access
    Mobile Access
    Classic Maps
         Recent
         DART®
    Obs Search
    Ship Obs Report
    BuoyCAMs
    TAO
    DODS
    OceanSITES
    HF Radar
    OSMC
    Dial-A-Buoy
    RSS Feeds Image indicating link to RSS feed access page
    Web Widget
    Email Access
    Web Data Guide
    Maintenance Schedule
    Station Status Report

 Program Info
    TAO
    DART®
    IOOS®

 Publications
    NDBC PEA
    NDBC FONSI
    NDBC DQC Handbook

 FAQ
 Visitor Information
 
USA.gov is the U.S. government's official web portal to all federal, state and local government web resources and services.

Station COVM2 - 8577018 - Cove Point LNG Pier, MD Image indicating link to RSS feed of recent meteorological observations for station COVM2

Owned and maintained by NOAA's National Ocean Service
C-MAN Station
38.402 N 76.385 W (38°24'8" N 76°23'7" W)

Site elevation: 0 m above mean sea level

Latest NWS Marine Forecast

Search And Rescue (SAR) Data

Meteorological Observations from Nearby Stations and Ships Image indicating link to RSS feed of recent meteorological observations near station COVM2

Large icon indicates selected station.
yellow diamond Stations with recent data
red diamond Stations with no data in last 8 hours
     (24 hours for tsunami stations)


Conditions at COVM2 as of
(9:48 am EST)
1448 GMT on 12/18/2018:
     

Click on the graph icon in the table below to see a time series plot of the last five days of that observation.

5-day plot - Wind Direction Wind Direction (WDIR): NNW ( 340 deg true )
5-day plot - Wind Speed Wind Speed (WSPD): 15 kts
5-day plot - Wind Gust Wind Gust (GST): 19 kts
5-day plot - Atmospheric Pressure Atmospheric Pressure (PRES): 30.16 in
5-day plot - Air Temperature Air Temperature (ATMP): 39.0 °F
5-day plot - Wind Chill Wind Chill (CHILL): 29.8 °F
5-day plot - Wind Speed at 10 Meters Wind Speed at 10 meters (WSPD10M): 14 kts
5-day plot - Wind Speed at 10 Meters Wind Speed at 20 meters (WSPD20M): 16 kts
5-day plot - Wind Speed, Wind Gust and Atmospheric Pressure Combined plot of Wind Speed, Gust, and Air Pressure
NOS Water Level Observation Network Water Level
Previous observations
5-day plot - Wind Direction 5-day plot - Wind Speed 5-day plot - Wind Gust 5-day plot - Wave Height 5-day plot - Dominant Wave Period 5-day plot - Average Period 5-day plot - Mean Wave Direction 5-day plot - Atmospheric Pressure 5-day plot - Pressure Tendency 5-day plot - Air Temperature 5-day plot - Water Temperature 5-day plot - Dew Point 5-day plot - Salinity 5-day plot - Visibility 5-day plot - Tide (above MLLW)
MM DD TIME
(EST)
WDIR WSPD
kts
GST
kts
WVHT
ft
DPD
sec
APD
sec
MWD PRES
in
PTDY
in
ATMP
°F
WTMP
°F
DEWP
°F
SAL
psu
VIS
nmi
TIDE
ft
1218 9:42 amNNW 16 21----30.16- 39.0-----
1218 9:36 amNNW 16 22----30.16- 39.2-----
1218 9:30 amNNW 16 23----30.16- 39.2-----
1218 9:24 amNNW 17 21----30.16- 38.8-----
1218 9:18 amNNW 18 22----30.16-------
1218 9:12 amNNW 14 20----30.16- 39.0-----
1218 9:06 amNNW 16 20----30.15- 38.7-----
1218 9:00 amNNW 17 20----30.15+0.07 38.7-----
1218 8:54 amNNW 14 19----30.15- 38.7-----
1218 8:48 amNNW 11 16----30.14-------
1218 8:42 amNNW 15 19----30.14- 38.3-----
1218 8:36 amNNW 13 18----30.14- 38.3-----
1218 8:30 amNNW 12 18----30.14- 38.5-----
1218 8:24 amNNW 12 17----30.14- 38.5-----
1218 8:18 amNNW 14 17----30.14-------
1218 8:12 amNNW 13 17----30.14-------
1218 8:06 amNNW 13 17----30.13- 38.1-----
1218 8:00 amNNW 13 16----30.13+0.07 38.1-----
1218 7:54 amNNW 12 17----30.13- 38.3-----
1218 7:48 amNNW 14 17----30.13- 38.1-----
1218 7:42 amNNW 14 17----30.12- 38.3-----
1218 7:36 am N 13 18----30.12- 38.5-----
1218 7:30 amNNW 14 17----30.12- 38.5-----
1218 7:24 am N 14 22----30.12- 38.7-----
1218 7:18 am N 21 23----30.12- 38.5-----
1218 7:12 am N 21 24----30.11- 38.7-----
1218 7:06 am N 20 26----30.11- 38.8-----
1218 7:00 am N 23 28----30.11+0.08 38.8-----
1218 6:54 am N 21 28----30.11- 39.0-----
1218 6:48 am N 24 31----30.10- 38.8-----
1218 6:42 am N 25 32------------
1218 6:36 am N 26 30----30.09- 38.8-----
1218 6:30 am N 22 26----30.09- 38.8-----
1218 6:24 am N 24 27----30.09- 39.0-----
1218 6:18 am N 22 27----30.09- 39.0-----
1218 6:12 am N 23 25----30.09- 39.0-----
1218 6:06 am N 22 25----30.08- 39.0-----
1218 6:00 am N 22 26----30.08+0.05 39.2-----
1218 5:54 am N 22 27----30.08- 39.2-----
1218 5:48 am N 21 25----30.08- 39.2-----
1218 5:42 am N 22 27----30.08- 39.4-----
1218 5:30 am N 24 28----30.07- 39.4-----
1218 5:24 am N 23 26----30.07- 39.4-----
1218 5:18 am N 23 25----30.07- 39.6-----
1218 5:12 am N 22 27----30.07- 39.6-----
1218 5:06 am N 21 23----30.06- 39.6-----
1218 5:00 am N 21 25----30.06+0.06 39.7-----
1218 4:54 am N 21 23----30.06- 39.9-----
1218 4:48 am N 19 24----30.06- 39.9-----
1218 4:42 am N 19 24----30.05- 39.9-----
1218 4:36 am N 19 23----30.04- 40.1-----
1218 4:30 amNNW 18 24----30.04- 40.1-----
1218 4:24 amNNW 18 24----30.04- 39.9-----
1218 4:18 amNNW 18 26----30.03- 39.9-----
1218 4:12 amNNW 17 20----30.03- 39.7-----
1218 4:06 amNNW 16 21----30.03- 39.9-----
1218 4:00 amNNW 16 20----30.03+0.04 39.9-----
1218 3:54 amNNW 16 24----30.03- 39.9-----
1218 3:48 amNNW 17 22----30.03- 39.9-----
1218 3:42 amNNW 17 22----30.03- 39.7-----
1218 3:36 amNNW 14 22----30.03- 39.7-----
1218 3:30 amNNW 14 19----30.03- 39.7-----
1218 3:24 amNNW 12 18----30.03- 39.7-----
1218 3:18 amNNW 13 18----30.03- 39.7-----
1218 3:12 am NW 13 17----30.03- 39.6-----
1218 3:06 am NW 10 17----30.03- 39.4-----
1218 3:00 am NW 12 18----30.03+0.05 39.6-----
1218 2:54 am NW 12 20----30.03- 39.7-----
1218 2:48 am NW 13 17----30.02- 39.7-----
1218 2:42 amNNW 11 18----30.02- 39.7-----
1218 2:36 amNNW 14 19----30.02- 39.9-----
1218 2:30 amNNW 13 18----30.02- 39.9-----
1218 2:24 amNNW 10 17----30.01- 39.9-----
1218 2:18 amNNW 15 22----30.01- 40.1-----
1218 2:12 amNNW 17 22----30.01- 40.5-----
1218 2:06 amNNW 17 22----30.01- 40.5-----
1218 2:00 amNNW 15 25----30.01+0.02 40.5-----
1218 1:54 amNNW 19 24----30.00- 40.6-----
1218 1:48 amNNW 16 20----30.00- 40.8-----
1218 1:42 am N 17 19----30.00- 41.0-----
1218 1:36 am N 18 21----29.99- 41.0-----
1218 1:30 am N 18 22----29.99- 41.4-----
1218 1:24 am N 20 22----29.99- 41.2-----
1218 1:18 am N 19 23----29.99- 41.4-----
1218 1:12 am N 16 21----29.99- 41.5-----
1218 1:06 am N 16 19----29.98- 41.5-----
1218 1:00 amNNW 15 19----29.98+0.00 41.5-----
121812:54 am N 14 17----29.98- 41.5-----
121812:48 amNNW 13 16----29.98- 41.5-----
121812:42 amNNW 14 17----29.98- 41.5-----
121812:36 amNNW 14 18----29.98- 41.5-----
121812:30 amNNW 14 17----29.98- 41.7-----
121812:24 amNNW 14 18----29.98- 41.7-----
121812:18 amNNW 16 18----29.98- 41.9-----
121812:12 amNNW 17 21----29.98- 42.1-----
121812:06 amNNW 17 21----29.98- 42.3-----
121812:00 amNNW 18 21----29.98+0.02 42.3-----
121711:54 pmNNW 18 21----29.98- 42.3-----
121711:48 pmNNW 17 22----29.98- 42.3-----
121711:42 pmNNW 18 23----29.98- 42.4-----
121711:36 pmNNW 18 22----29.98- 42.6-----
121711:30 pmNNW 19 24----29.98- 42.6-----
121711:24 pm N 20 27----29.98- 42.8-----
121711:18 pm N 24 27----29.98- 43.0-----
121711:12 pm N 21 26----29.98- 43.0-----
121711:06 pm N 21 26----29.98- 43.0-----
121711:00 pm N 20 23----29.98+0.04 43.0-----
121710:54 pm N 22 26----29.98- 43.0-----
121710:48 pm N 19 27----29.98- 43.2-----
121710:42 pm N 19 23----29.98- 43.2-----
121710:36 pmNNW 20 26----29.98- 43.2-----
121710:30 pm N 19 28----29.98- 43.2-----
121710:24 pm N 18 27----29.98- 43.2-----
121710:18 pm N 21 26----29.98- 43.2-----
121710:12 pmNNW 19 26----29.98- 43.3-----
121710:06 pm N 20 27----29.98- 43.3-----
121710:00 pm N 21 28----29.98+0.06 43.5-----
1217 9:54 pm N 22 27----29.98- 43.5-----
1217 9:48 pm N 23 28----29.98- 43.7-----
1217 9:42 pm N 24 28----29.97- 43.7-----
1217 9:36 pm N 25 29----29.97- 43.7-----
1217 9:30 pm N 24 30----29.96- 43.7-----
1217 9:24 pm N 24 30----29.96- 43.7-----
1217 9:18 pm N 26 31----29.96- 43.9-----
1217 9:12 pm N 25 30----29.96- 43.9-----
1217 9:06 pm N 19 25----29.95- 43.9-----
1217 9:00 pm N 17 22----29.95+0.07 44.1-----
1217 8:54 pm N 14 20----29.95- 43.9-----
1217 8:48 pm N 12 19----29.95- 43.9-----
1217 8:42 pm N 15 21----29.95- 44.1-----
1217 8:36 pm N 15 20----29.95- 44.1-----
1217 8:30 pm N 18 25----29.94- 44.2-----
1217 8:18 pm N 16 23----29.94- 44.4-----
1217 8:12 pm N 12 19----29.94- 44.4-----
1217 8:06 pm N 13 19----29.94- 44.6-----
1217 8:00 pm N 14 18----29.94+0.09 45.0-----
1217 7:54 pm N 15 17----29.94- 45.1-----
1217 7:48 pm N 13 18----29.94- 45.3-----
1217 7:42 pm N 14 18----29.94- 45.7-----
1217 7:36 pm N 11 16----29.93- 45.5-----
1217 7:30 pm N 11 16----29.93- 45.9-----
1217 7:24 pm N 11 16----29.93- 46.2-----
1217 7:18 pmNNE 14 17----29.93- 46.2-----
1217 7:12 pm N 12 17----29.93- 46.4-----
1217 7:06 pm N 13 16----29.92- 46.6-----
1217 7:00 pm N 9 13----29.92+0.08 46.8-----
1217 6:54 pm N 12 18----29.92- 47.8-----
1217 6:48 pm N 16 19----29.92- 49.1-----
1217 6:42 pm N 11 15----29.92- 48.2-----
1217 6:36 pm N 15 17----29.91- 49.5-----
1217 6:30 pmNNW 11 14------------
1217 6:24 pmNNW 6 10----29.91- 50.4-----
1217 6:18 pmWNW 5 8----29.90- 50.5-----
1217 6:12 pmWNW 7 11----29.89- 50.7-----
1217 6:06 pmWNW 8 11----29.88- 50.9-----
1217 6:00 pmWNW 6 10----29.88+0.04 50.9-----
1217 5:54 pm W 5 7----29.88- 50.2-----
1217 5:48 pmWSW 3 7----29.88- 50.0-----
1217 5:42 pm W 6 9----29.88- 51.3-----
1217 5:36 pmWNW 7 10----29.87- 51.6-----
1217 5:30 pmWNW 7 11----29.87- 51.4-----
1217 5:24 pmWNW 7 11----29.86- 51.1-----
1217 5:18 pmWNW 8 12----29.86- 51.3-----
1217 5:12 pm W 9 13----29.86- 50.9-----
1217 5:06 pm W 7 9----29.85- 50.5-----
1217 5:00 pmWNW 7 10----29.85+0.01 50.7-----
1217 4:54 pm W 8 12----29.85- 50.9-----
1217 4:48 pm W 8 11----29.85- 51.1-----
1217 4:42 pm W 7 12----29.85- 51.3-----
1217 4:36 pm W 8 12----29.85- 51.4-----
1217 4:30 pm W 8 11----29.84- 51.6-----
1217 4:24 pm W 10 12----29.84- 51.8-----
1217 4:18 pm W 8 12----29.84- 51.6-----
1217 4:12 pm W 8 15----29.84- 51.8-----
1217 4:06 pm W 9 12----29.84- 51.6-----
1217 4:00 pm W 10 13----29.84-0.01 51.6-----
1217 3:54 pm W 10 15----29.83- 51.8-----
1217 3:48 pm W 10 17----29.83- 51.8-----
1217 3:42 pm W 13 16----29.83- 51.8-----
1217 3:36 pm W 10 13----29.84- 51.3-----
1217 3:30 pm W 8 12----29.84- 51.1-----
1217 3:24 pm W 6 10----29.84- 50.9-----
1217 3:18 pmWNW 7 11----29.84- 50.7-----
1217 3:12 pm W 9 12----29.84- 50.9-----
1217 3:06 pmWNW 6 9----29.84- 50.9-----
1217 3:00 pm W 6 9----29.84-0.02 50.9-----
1217 2:54 pmWNW 5 8----29.84- 50.9-----
1217 2:48 pmWNW 6 7----29.84- 50.7-----
1217 2:42 pmWNW 7 10----29.84- 50.9-----
1217 2:36 pm W 6 11----29.84- 50.7-----
1217 2:30 pm W 7 11----29.84- 50.9-----
1217 2:24 pmWNW 8 11----29.84- 50.9-----
1217 2:18 pmWNW 6 11----29.84- 50.5-----
1217 2:12 pmWNW 6 12----29.84- 50.7-----
1217 2:06 pm NW 9 12----29.84- 50.9-----
1217 2:00 pm NW 8 15----29.84-0.06 50.9-----
1217 1:54 pmWNW 8 12----29.84- 51.3-----
1217 1:48 pmWNW 9 12----29.84- 51.4-----
1217 1:36 pm NW 7 11----29.84- 50.9-----
1217 1:30 pmWNW 7 13----29.84- 50.9-----
1217 1:24 pmWNW 9 12----29.84- 50.9-----
1217 1:18 pmWNW 7 13----29.84- 51.1-----
1217 1:12 pmWNW 7 13----29.84- 50.7-----
1217 1:06 pmWNW 9 14----29.84- 51.1-----
1217 1:00 pm NW 11 15----29.85-0.08 51.1-----
121712:54 pmWNW 10 16----29.85- 51.3-----
121712:48 pm W 11 15----29.85- 51.6-----
121712:42 pmWNW 10 16----29.85- 51.6-----
121712:36 pmWNW 11 15----29.85- 51.8-----
121712:30 pm W 11 15----29.85- 51.6-----
121712:24 pmWNW 9 12----29.85- 51.8-----
121712:18 pmWNW 9 12----29.85- 51.8-----
121712:12 pmWNW 7 11----29.85- 52.2-----
121712:06 pm NW 8 10----29.85- 52.0-----
121712:00 pm NW 6 8----29.86- 51.4-----
121711:54 am W 4 7----29.86- 51.8-----
121711:48 amWNW 4 8----29.87- 50.5-----
121711:42 amWNW 7 11----29.87- 50.7-----
121711:36 amWNW 5 9----29.88- 50.4-----
121711:30 amWNW 5 11----29.88- 50.4-----
121711:24 amWNW 8 12----29.89- 49.6-----
121711:18 amWNW 6 10----29.89- 49.1-----
121711:06 am NW 10 14----29.89- 48.6-----
121711:00 am NW 9 11----29.89-0.04 48.4-----
121710:54 am NW 8 14----29.89- 48.4-----
121710:48 amWNW 6 10----29.90- 47.8-----
121710:42 amWNW 9 11----29.90- 47.3-----
121710:36 amWNW 7 11----29.91- 47.5-----
121710:30 amWNW 8 11----29.91- 46.9-----
121710:24 am W 5 12----29.91- 47.3-----
121710:18 am W 7 11----29.91- 46.9-----
121710:12 am W 5 7----29.92- 47.1-----
121710:06 am W 4 7----29.92- 46.9-----
121710:00 amWNW 4 12----29.92+0.01 46.2-----
1217 9:54 amWNW 6 9----29.93- 45.7-----

Description of Measurements

Links which are specific to this station are listed below:

Real Time Data in tabular form for the last forty-five days.

Historical Data & Climatic Summaries for quality controlled data for the current month, previous months, and previous years.